"Period start","avg(HW err(1)/warn(2) (#))","avg(Visibility (m))","avg(Weather code (#))","avg(Precip intensity (mm/h))","min(HW err(1)/warn(2) (#))","max(HW err(1)/warn(2) (#))","std(HW err(1)/warn(2) (#))","med(HW err(1)/warn(2) (#))","min(Visibility (m))","max(Visibility (m))","std(Visibility (m))","med(Visibility (m))","min(Weather code (#))","max(Weather code (#))","std(Weather code (#))","med(Weather code (#))","min(Precip intensity (mm/h))","max(Precip intensity (mm/h))","std(Precip intensity (mm/h))","med(Precip intensity (mm/h))"
2013-09-20 00:00:00,2,42830,0,0.00,2,2,0,2,28532,50000,6877,44552,0,0,0,0,0.00,0.00,0.00,0.00
2013-09-20 00:10:00,2,49111,0,0.00,2,2,0,2,45134,50000,1546,50000,0,0,0,0,0.00,0.00,0.00,0.00
2013-09-20 00:20:00,2,44829,0,0.00,2,2,0,2,36657,50000,5152,45685,0,0,0,0,0.00,0.00,0.00,0.00
2013-09-20 00:30:00,2,49187,0,0.00,2,2,0,2,46114,50000,1414,50000,0,0,0,0,0.00,0.00,0.00,0.00
2013-09-20 00:40:00,2,44486,0,0.00,2,2,0,2,27815,50000,6696,47176,0,0,0,0,0.00,0.00,0.00,0.00
2013-09-20 00:50:00,2,46405,0,0.00,2,2,0,2,33900,50000,5332,50000,0,0,0,0,0.00,0.00,0.00,0.00
2013-09-20 01:00:00,2,41924,0,0.00,2,2,0,2,32366,50000,6535,41960,0,0,0,0,0.00,0.00,0.00,0.00
2013-09-20 01:10:00,2,45924,0,0.00,2,2,0,2,40811,50000,3569,46414,0,0,0,0,0.00,0.00,0.00,0.00
2013-09-20 01:20:00,2,46662,0,0.00,2,2,0,2,34674,50000,4951,50000,0,0,0,0,0.00,0.00,0.00,0.00
2013-09-20 01:30:00,2,40683,0,0.00,2,2,0,2,29494,50000,6314,42078,0,0,0,0,0.00,0.00,0.00,0.00
2013-09-20 01:40:00,2,47732,0,0.00,2,2,0,2,39628,50000,3463,49200,0,0,0,0,0.00,0.00,0.00,0.00
2013-09-20 01:50:00,2,47602,0,0.00,2,2,0,2,40438,50000,3715,50000,0,0,0,0,0.00,0.00,0.00,0.00
2013-09-20 02:00:00,2,46003,0,0.00,2,2,0,2,36993,50000,4802,48736,0,0,0,0,0.00,0.00,0.00,0.00
2013-09-20 02:10:00,2,42523,0,0.00,2,2,0,2,31467,50000,6242,43122,0,0,0,0,0.00,0.00,0.00,0.00
2013-09-20 02:20:00,2,48371,0,0.00,2,2,0,2,42321,50000,2303,49344,0,0,0,0,0.00,0.00,0.00,0.00
2013-09-20 02:30:00,2,47159,0,0.00,2,2,0,2,43109,50000,2711,48122,0,0,0,0,0.00,0.00,0.00,0.00
2013-09-20 02:40:00,2,41350,0,0.00,2,2,0,2,31864,50000,4983,41583,0,0,0,0,0.00,0.00,0.00,0.00
2013-09-20 02:50:00,2,47905,0,0.00,2,2,0,2,36295,50000,4306,50000,0,0,0,0,0.00,0.00,0.00,0.00
2013-09-20 03:00:00,2,39162,0,0.00,2,2,0,2,26209,50000,8516,36362,0,0,0,0,0.00,0.00,0.00,0.00
2013-09-20 03:10:00,2,48561,0,0.00,2,2,0,2,44041,50000,1978,49556,0,0,0,0,0.00,0.00,0.00,0.00
2013-09-20 03:20:00,2,45468,0,0.00,2,2,0,2,39426,50000,4258,45440,0,0,0,0,0.00,0.00,0.00,0.00
2013-09-20 03:30:00,2,48870,0,0.00,2,2,0,2,43751,50000,2172,50000,0,0,0,0,0.00,0.00,0.00,0.00
2013-09-20 03:40:00,2,47526,0,0.00,2,2,0,2,40417,50000,2823,48018,0,0,0,0,0.00,0.00,0.00,0.00
2013-09-20 03:50:00,2,48721,0,0.00,2,2,0,2,42265,50000,2487,50000,0,0,0,0,0.00,0.00,0.00,0.00
2013-09-20 04:00:00,2,48276,0,0.00,2,2,0,2,42192,50000,2514,49632,0,0,0,0,0.00,0.00,0.00,0.00
2013-09-20 04:10:00,2,46784,0,0.00,2,2,0,2,29957,50000,5766,48849,0,0,0,0,0.00,0.00,0.00,0.00
2013-09-20 04:20:00,2,45325,0,0.00,2,2,0,2,35591,50000,5928,49596,0,0,0,0,0.00,0.00,0.00,0.00
2013-09-20 04:30:00,2,41356,0,0.00,2,2,0,2,31546,50000,6935,40016,0,0,0,0,0.00,0.00,0.00,0.00
2013-09-20 04:40:00,2,45370,0,0.00,2,2,0,2,39248,50000,3500,45956,0,0,0,0,0.00,0.00,0.00,0.00
2013-09-20 04:50:00,2,47361,0,0.00,2,2,0,2,37731,50000,3713,49212,0,0,0,0,0.00,0.00,0.00,0.00
2013-09-20 05:00:00,2,44045,0,0.00,2,2,0,2,36120,50000,4753,43754,0,0,0,0,0.00,0.00,0.00,0.00
2013-09-20 05:10:00,2,49028,0,0.00,2,2,0,2,43806,50000,1957,50000,0,0,0,0,0.00,0.00,0.00,0.00
2013-09-20 05:20:00,2,48565,0,0.00,2,2,0,2,44962,50000,1955,50000,0,0,0,0,0.00,0.00,0.00,0.00
2013-09-20 05:30:00,2,42439,0,0.00,2,2,0,2,37234,49879,3977,41396,0,0,0,0,0.00,0.00,0.00,0.00
2013-09-20 05:40:00,2,45173,0,0.00,2,2,0,2,30958,50000,6608,48152,0,0,0,0,0.00,0.00,0.00,0.00
2013-09-20 05:50:00,2,44393,0,0.00,2,2,0,2,27736,50000,7792,48920,0,0,0,0,0.00,0.00,0.00,0.00
2013-09-20 06:00:00,2,49008,0,0.00,2,2,0,2,42627,50000,2258,50000,0,0,0,0,0.00,0.00,0.00,0.00
2013-09-20 06:10:00,2,49180,0,0.00,2,2,0,2,42098,50000,2362,50000,0,0,0,0,0.00,0.00,0.00,0.00
2013-09-20 06:20:00,2,48824,0,0.00,2,2,0,2,43479,50000,2073,50000,0,0,0,0,0.00,0.00,0.00,0.00
2013-09-20 06:30:00,2,46309,0,0.00,2,2,0,2,36699,50000,4533,48724,0,0,0,0,0.00,0.00,0.00,0.00
2013-09-20 06:40:00,2,49771,0,0.00,2,2,0,2,47709,50000,687,50000,0,0,0,0,0.00,0.00,0.00,0.00
2013-09-20 06:50:00,2,49782,0,0.00,2,2,0,2,48879,50000,436,50000,0,0,0,0,0.00,0.00,0.00,0.00
2013-09-20 07:00:00,2,50000,0,0.00,2,2,0,2,50000,50000,0,50000,0,0,0,0,0.00,0.00,0.00,0.00
2013-09-20 07:10:00,2,50000,0,0.00,2,2,0,2,50000,50000,0,50000,0,0,0,0,0.00,0.00,0.00,0.00
2013-09-20 07:20:00,2,50000,0,0.00,2,2,0,2,50000,50000,0,50000,0,0,0,0,0.00,0.00,0.00,0.00
2013-09-20 07:30:00,2,49598,0,0.00,2,2,0,2,45979,50000,1206,50000,0,0,0,0,0.00,0.00,0.00,0.00
2013-09-20 07:40:00,2,49948,0,0.00,2,2,0,2,49480,50000,156,50000,0,0,0,0,0.00,0.00,0.00,0.00
2013-09-20 07:50:00,2,49952,0,0.00,2,2,0,2,49517,50000,145,50000,0,0,0,0,0.00,0.00,0.00,0.00
2013-09-20 08:00:00,2,49915,0,0.00,2,2,0,2,49146,50000,256,50000,0,0,0,0,0.00,0.00,0.00,0.00
2013-09-20 08:10:00,2,50000,0,0.00,2,2,0,2,50000,50000,0,50000,0,0,0,0,0.00,0.00,0.00,0.00
2013-09-20 08:20:00,2,50000,0,0.00,2,2,0,2,50000,50000,0,50000,0,0,0,0,0.00,0.00,0.00,0.00
2013-09-20 08:30:00,2,49966,0,0.00,2,2,0,2,49665,50000,100,50000,0,0,0,0,0.00,0.00,0.00,0.00
2013-09-20 08:40:00,2,50000,0,0.00,2,2,0,2,50000,50000,0,50000,0,0,0,0,0.00,0.00,0.00,0.00
2013-09-20 08:50:00,2,50000,0,0.00,2,2,0,2,50000,50000,0,50000,0,0,0,0,0.00,0.00,0.00,0.00
2013-09-20 09:00:00,2,50000,0,0.00,2,2,0,2,50000,50000,0,50000,0,0,0,0,0.00,0.00,0.00,0.00
2013-09-20 09:10:00,2,50000,0,0.00,2,2,0,2,50000,50000,0,50000,0,0,0,0,0.00,0.00,0.00,0.00
2013-09-20 09:20:00,2,50000,0,0.00,2,2,0,2,50000,50000,0,50000,0,0,0,0,0.00,0.00,0.00,0.00
2013-09-20 09:30:00,2,50000,0,0.00,2,2,0,2,50000,50000,0,50000,0,0,0,0,0.00,0.00,0.00,0.00
2013-09-20 09:40:00,2,50000,0,0.00,2,2,0,2,50000,50000,0,50000,0,0,0,0,0.00,0.00,0.00,0.00
2013-09-20 09:50:00,2,50000,0,0.00,2,2,0,2,50000,50000,0,50000,0,0,0,0,0.00,0.00,0.00,0.00
2013-09-20 10:00:00,2,50000,0,0.00,2,2,0,2,50000,50000,0,50000,0,0,0,0,0.00,0.00,0.00,0.00
2013-09-20 10:10:00,2,50000,0,0.00,2,2,0,2,50000,50000,0,50000,0,0,0,0,0.00,0.00,0.00,0.00
2013-09-20 10:20:00,2,50000,0,0.00,2,2,0,2,50000,50000,0,50000,0,0,0,0,0.00,0.00,0.00,0.00
2013-09-20 10:30:00,2,50000,0,0.00,2,2,0,2,50000,50000,0,50000,0,0,0,0,0.00,0.00,0.00,0.00
2013-09-20 10:40:00,2,50000,0,0.00,2,2,0,2,50000,50000,0,50000,0,0,0,0,0.00,0.00,0.00,0.00
2013-09-20 10:50:00,2,50000,0,0.00,2,2,0,2,50000,50000,0,50000,0,0,0,0,0.00,0.00,0.00,0.00
2013-09-20 11:00:00,2,50000,0,0.00,2,2,0,2,50000,50000,0,50000,0,0,0,0,0.00,0.00,0.00,0.00
2013-09-20 11:10:00,2,50000,0,0.00,2,2,0,2,50000,50000,0,50000,0,0,0,0,0.00,0.00,0.00,0.00
2013-09-20 11:20:00,2,50000,0,0.00,2,2,0,2,50000,50000,0,50000,0,0,0,0,0.00,0.00,0.00,0.00
2013-09-20 11:30:00,2,50000,0,0.00,2,2,0,2,50000,50000,0,50000,0,0,0,0,0.00,0.00,0.00,0.00
2013-09-20 11:40:00,2,50000,0,0.00,2,2,0,2,50000,50000,0,50000,0,0,0,0,0.00,0.00,0.00,0.00
2013-09-20 11:50:00,2,50000,0,0.00,2,2,0,2,50000,50000,0,50000,0,0,0,0,0.00,0.00,0.00,0.00
2013-09-20 12:00:00,2,50000,0,0.00,2,2,0,2,50000,50000,0,50000,0,0,0,0,0.00,0.00,0.00,0.00
2013-09-20 12:10:00,2,50000,0,0.00,2,2,0,2,50000,50000,0,50000,0,0,0,0,0.00,0.00,0.00,0.00
2013-09-20 12:20:00,2,50000,0,0.00,2,2,0,2,50000,50000,0,50000,0,0,0,0,0.00,0.00,0.00,0.00
2013-09-20 12:30:00,2,50000,0,0.00,2,2,0,2,50000,50000,0,50000,0,0,0,0,0.00,0.00,0.00,0.00
2013-09-20 12:40:00,2,50000,0,0.00,2,2,0,2,50000,50000,0,50000,0,0,0,0,0.00,0.00,0.00,0.00
2013-09-20 12:50:00,2,50000,0,0.00,2,2,0,2,50000,50000,0,50000,0,0,0,0,0.00,0.00,0.00,0.00
2013-09-20 13:00:00,2,50000,0,0.00,2,2,0,2,50000,50000,0,50000,0,0,0,0,0.00,0.00,0.00,0.00
2013-09-20 13:10:00,2,50000,0,0.00,2,2,0,2,50000,50000,0,50000,0,0,0,0,0.00,0.00,0.00,0.00
2013-09-20 13:20:00,2,50000,0,0.00,2,2,0,2,50000,50000,0,50000,0,0,0,0,0.00,0.00,0.00,0.00
2013-09-20 13:30:00,2,50000,0,0.00,2,2,0,2,50000,50000,0,50000,0,0,0,0,0.00,0.00,0.00,0.00
2013-09-20 13:40:00,2,50000,0,0.00,2,2,0,2,50000,50000,0,50000,0,0,0,0,0.00,0.00,0.00,0.00
2013-09-20 13:50:00,2,50000,0,0.00,2,2,0,2,50000,50000,0,50000,0,0,0,0,0.00,0.00,0.00,0.00
2013-09-20 14:00:00,2,50000,0,0.00,2,2,0,2,50000,50000,0,50000,0,0,0,0,0.00,0.00,0.00,0.00
2013-09-20 14:10:00,2,50000,0,0.00,2,2,0,2,50000,50000,0,50000,0,0,0,0,0.00,0.00,0.00,0.00
2013-09-20 14:20:00,2,50000,0,0.00,2,2,0,2,50000,50000,0,50000,0,0,0,0,0.00,0.00,0.00,0.00
2013-09-20 14:30:00,2,50000,0,0.00,2,2,0,2,50000,50000,0,50000,0,0,0,0,0.00,0.00,0.00,0.00
2013-09-20 14:40:00,2,50000,0,0.00,2,2,0,2,50000,50000,0,50000,0,0,0,0,0.00,0.00,0.00,0.00
2013-09-20 14:50:00,2,50000,0,0.00,2,2,0,2,50000,50000,0,50000,0,0,0,0,0.00,0.00,0.00,0.00
2013-09-20 15:00:00,2,50000,0,0.00,2,2,0,2,50000,50000,0,50000,0,0,0,0,0.00,0.00,0.00,0.00
2013-09-20 15:10:00,2,50000,0,0.00,2,2,0,2,50000,50000,0,50000,0,0,0,0,0.00,0.00,0.00,0.00
2013-09-20 15:20:00,2,50000,0,0.00,2,2,0,2,50000,50000,0,50000,0,0,0,0,0.00,0.00,0.00,0.00
2013-09-20 15:30:00,2,50000,0,0.00,2,2,0,2,50000,50000,0,50000,0,0,0,0,0.00,0.00,0.00,0.00
2013-09-20 15:40:00,2,50000,0,0.00,2,2,0,2,50000,50000,0,50000,0,0,0,0,0.00,0.00,0.00,0.00
2013-09-20 15:50:00,2,50000,0,0.00,2,2,0,2,50000,50000,0,50000,0,0,0,0,0.00,0.00,0.00,0.00
2013-09-20 16:00:00,2,50000,0,0.00,2,2,0,2,50000,50000,0,50000,0,0,0,0,0.00,0.00,0.00,0.00
2013-09-20 16:10:00,2,50000,0,0.00,2,2,0,2,50000,50000,0,50000,0,0,0,0,0.00,0.00,0.00,0.00
2013-09-20 16:20:00,2,49911,0,0.00,2,2,0,2,49106,50000,268,50000,0,0,0,0,0.00,0.00,0.00,0.00
2013-09-20 16:30:00,2,50000,0,0.00,2,2,0,2,50000,50000,0,50000,0,0,0,0,0.00,0.00,0.00,0.00
2013-09-20 16:40:00,2,50000,0,0.00,2,2,0,2,50000,50000,0,50000,0,0,0,0,0.00,0.00,0.00,0.00
2013-09-20 16:50:00,2,50000,0,0.00,2,2,0,2,50000,50000,0,50000,0,0,0,0,0.00,0.00,0.00,0.00
2013-09-20 17:00:00,2,50000,0,0.00,2,2,0,2,50000,50000,0,50000,0,0,0,0,0.00,0.00,0.00,0.00
2013-09-20 17:10:00,2,50000,0,0.00,2,2,0,2,50000,50000,0,50000,0,0,0,0,0.00,0.00,0.00,0.00
2013-09-20 17:20:00,2,50000,0,0.00,2,2,0,2,50000,50000,0,50000,0,0,0,0,0.00,0.00,0.00,0.00
2013-09-20 17:30:00,2,50000,0,0.00,2,2,0,2,50000,50000,0,50000,0,0,0,0,0.00,0.00,0.00,0.00
2013-09-20 17:40:00,2,50000,0,0.00,2,2,0,2,50000,50000,0,50000,0,0,0,0,0.00,0.00,0.00,0.00
2013-09-20 17:50:00,2,50000,0,0.00,2,2,0,2,50000,50000,0,50000,0,0,0,0,0.00,0.00,0.00,0.00
2013-09-20 18:00:00,2,50000,0,0.00,2,2,0,2,50000,50000,0,50000,0,0,0,0,0.00,0.00,0.00,0.00
2013-09-20 18:10:00,2,50000,0,0.00,2,2,0,2,50000,50000,0,50000,0,0,0,0,0.00,0.00,0.00,0.00
2013-09-20 18:20:00,2,50000,0,0.00,2,2,0,2,50000,50000,0,50000,0,0,0,0,0.00,0.00,0.00,0.00
2013-09-20 18:30:00,2,50000,0,0.00,2,2,0,2,50000,50000,0,50000,0,0,0,0,0.00,0.00,0.00,0.00
2013-09-20 18:40:00,2,50000,0,0.00,2,2,0,2,50000,50000,0,50000,0,0,0,0,0.00,0.00,0.00,0.00
2013-09-20 18:50:00,2,50000,0,0.00,2,2,0,2,50000,50000,0,50000,0,0,0,0,0.00,0.00,0.00,0.00
2013-09-20 19:00:00,2,50000,0,0.00,2,2,0,2,50000,50000,0,50000,0,0,0,0,0.00,0.00,0.00,0.00
2013-09-20 19:10:00,2,50000,0,0.00,2,2,0,2,50000,50000,0,50000,0,0,0,0,0.00,0.00,0.00,0.00
2013-09-20 19:20:00,2,50000,0,0.00,2,2,0,2,50000,50000,0,50000,0,0,0,0,0.00,0.00,0.00,0.00
2013-09-20 19:30:00,2,50000,0,0.00,2,2,0,2,50000,50000,0,50000,0,0,0,0,0.00,0.00,0.00,0.00
2013-09-20 19:40:00,2,50000,0,0.00,2,2,0,2,50000,50000,0,50000,0,0,0,0,0.00,0.00,0.00,0.00
2013-09-20 19:50:00,2,50000,0,0.00,2,2,0,2,50000,50000,0,50000,0,0,0,0,0.00,0.00,0.00,0.00
2013-09-20 20:00:00,2,50000,0,0.00,2,2,0,2,50000,50000,0,50000,0,0,0,0,0.00,0.00,0.00,0.00
2013-09-20 20:10:00,2,50000,0,0.00,2,2,0,2,50000,50000,0,50000,0,0,0,0,0.00,0.00,0.00,0.00
2013-09-20 20:20:00,2,50000,0,0.00,2,2,0,2,50000,50000,0,50000,0,0,0,0,0.00,0.00,0.00,0.00
2013-09-20 20:30:00,2,50000,0,0.00,2,2,0,2,50000,50000,0,50000,0,0,0,0,0.00,0.00,0.00,0.00
2013-09-20 20:40:00,2,50000,0,0.00,2,2,0,2,50000,50000,0,50000,0,0,0,0,0.00,0.00,0.00,0.00
2013-09-20 20:50:00,2,50000,0,0.00,2,2,0,2,50000,50000,0,50000,0,0,0,0,0.00,0.00,0.00,0.00
2013-09-20 21:00:00,2,50000,0,0.00,2,2,0,2,50000,50000,0,50000,0,0,0,0,0.00,0.00,0.00,0.00
2013-09-20 21:10:00,2,50000,0,0.00,2,2,0,2,50000,50000,0,50000,0,0,0,0,0.00,0.00,0.00,0.00
2013-09-20 21:20:00,2,50000,0,0.00,2,2,0,2,50000,50000,0,50000,0,0,0,0,0.00,0.00,0.00,0.00
2013-09-20 21:30:00,2,49996,0,0.00,2,2,0,2,49958,50000,13,50000,0,0,0,0,0.00,0.00,0.00,0.00
2013-09-20 21:40:00,2,49603,0,0.00,2,2,0,2,46034,50000,1190,50000,0,0,0,0,0.00,0.00,0.00,0.00
2013-09-20 21:50:00,2,49034,0,0.00,2,2,0,2,43859,50000,1873,50000,0,0,0,0,0.00,0.00,0.00,0.00
2013-09-20 22:00:00,2,49298,0,0.00,2,2,0,2,45085,50000,1538,50000,0,0,0,0,0.00,0.00,0.00,0.00
2013-09-20 22:10:00,2,49863,0,0.00,2,2,0,2,48627,50000,412,50000,0,0,0,0,0.00,0.00,0.00,0.00
2013-09-20 22:20:00,2,49437,0,0.00,2,2,0,2,47673,50000,878,50000,0,0,0,0,0.00,0.00,0.00,0.00
2013-09-20 22:30:00,2,48643,0,0.00,2,2,0,2,45145,50000,2081,50000,0,0,0,0,0.00,0.00,0.00,0.00
2013-09-20 22:40:00,2,46351,0,0.00,2,2,0,2,40313,50000,3884,48032,0,0,0,0,0.00,0.00,0.00,0.00
2013-09-20 22:50:00,2,49402,0,0.00,2,2,0,2,46602,50000,1035,49998,0,0,0,0,0.00,0.00,0.00,0.00
2013-09-20 23:00:00,2,49798,0,0.00,2,2,0,2,47984,50000,605,50000,0,0,0,0,0.00,0.00,0.00,0.00
2013-09-20 23:10:00,2,49979,0,0.00,2,2,0,2,49786,50000,64,50000,0,0,0,0,0.00,0.00,0.00,0.00
2013-09-20 23:20:00,2,49769,0,0.00,2,2,0,2,48469,50000,491,50000,0,0,0,0,0.00,0.00,0.00,0.00
2013-09-20 23:30:00,2,48530,0,0.00,2,2,0,2,43533,50000,2471,50000,0,0,0,0,0.00,0.00,0.00,0.00
2013-09-20 23:40:00,2,46352,0,0.00,2,2,0,2,36180,50000,4535,48607,0,0,0,0,0.00,0.00,0.00,0.00
2013-09-20 23:50:00,2,48109,0,0.00,2,2,0,2,42841,50000,2808,49928,0,0,0,0,0.00,0.00,0.00,0.00
